Tracking 20369 objects as of 18-Feb-2020
HD Live streaming from Space Station
objects crossing your sky now

EKRAN 7

Track EKRAN 7 now!
EKRAN 7 is classified as:


NORAD ID: 12564
Int'l Code: 1981-061A
Perigee: 35,776.4 km
Apogee: 35,842.2 km
Inclination: 11.7 °
Period: 1,436.9 minutes
Semi major axis: 42180 km
RCS: 3.9811 m2 (large)
Launch date: June 26, 1981
Source: Commonwealth of Independent States (former USSR) (CIS)
Launch site: TYURATAM MISSILE AND SPACE COMPLEX (TTMTR)
aabbcc
Your satellite tracking list
Your tracking list is empty




NASA's NSSDC Master Catalog

Two Line Element Set (TLE):
1 12564U 81061A   20048.75888434 -.00000148 +00000-0 +00000-0 0  9999
2 12564 011.7034 316.8755 0007801 028.2991 155.8878 01.00216334106333
Source of the keplerian elements: AFSPC